When you browse on this site, cookies collect data to enhance your experience and personalize the content and advertising you see.
Visit our Privacy Policy to learn more. By continuing to use the site, you agree to this use of cookies and data.
  • In Lithuania
  • List of Countries
  • For 7 days
  • Water Temperature
  • Weather Map
  • Weather Widgets
  • user-avatar
    Login

    Hourly Weather Monaco

    Today, 15 November, Friday

    Time Temperature Precipitation Wind Pressure Humidity
    00:00 +7°C° 0 mm 4 mps 738 mmHg 92%
    01:00 +7°C° 0.7 mm 4 mps 738 mmHg 91%
    02:00 +8°C° 0.7 mm 3 mps 738 mmHg 91%
    03:00 +9°C° 0.7 mm 3 mps 739 mmHg 91%
    04:00 +8°C° 0 mm 3 mps 739 mmHg 90%
    05:00 +8°C° 0 mm 3 mps 740 mmHg 90%
    06:00 +7°C° 0 mm 3 mps 741 mmHg 89%
    07:00 +8°C° 0 mm 3 mps 741 mmHg 86%
    08:00 +9°C° 0 mm 2 mps 741 mmHg 82%
    09:00 +10°C° 0 mm 2 mps 741 mmHg 78%
    10:00 +10°C° 0 mm 2 mps 741 mmHg 78%
    11:00 +12°C° 0 mm 2 mps 741 mmHg 77%
    12:00 +12°C° 0 mm 1 mps 741 mmHg 77%
    13:00 +12°C° 0 mm 1 mps 741 mmHg 80%
    14:00 +11°C° 0 mm 1 mps 741 mmHg 83%
    15:00 +11°C° 0 mm 1 mps 741 mmHg 86%
    16:00 +10°C° 0 mm 1 mps 741 mmHg 84%
    17:00 +9°C° 0 mm 2 mps 742 mmHg 83%
    18:00 +8°C° 0 mm 2 mps 742 mmHg 82%
    19:00 +8°C° 0.4 mm 3 mps 742 mmHg 82%
    20:00 +7°C° 0.4 mm 4 mps 743 mmHg 83%
    21:00 +7°C° 0.4 mm 4 mps 743 mmHg 83%
    22:00 +7°C° 1.4 mm 4 mps 743 mmHg 84%
    23:00 +7°C° 1.4 mm 4 mps 744 mmHg 86%

    Tomorrow, 16 November, Saturday

    Time Temperature Precipitation Wind Pressure Humidity
    00:00 +8°C° 1.4 mm 3 mps 744 mmHg 87%
    01:00 +8°C° 0.5 mm 3 mps 745 mmHg 88%
    02:00 +8°C° 0.5 mm 3 mps 745 mmHg 90%
    03:00 +8°C° 0.5 mm 3 mps 745 mmHg 91%
    04:00 +7°C° 0.3 mm 3 mps 746 mmHg 90%
    05:00 +7°C° 0.3 mm 3 mps 747 mmHg 90%
    06:00 +7°C° 0.3 mm 2 mps 747 mmHg 90%
    07:00 +8°C° 0 mm 2 mps 748 mmHg 87%
    08:00 +10°C° 0 mm 1 mps 748 mmHg 84%
    09:00 +11°C° 0 mm 1 mps 748 mmHg 81%
    10:00 +11°C° 0 mm 1 mps 748 mmHg 79%
    11:00 +11°C° 0 mm 1 mps 749 mmHg 77%
    12:00 +12°C° 0 mm 1 mps 749 mmHg 76%
    13:00 +10°C° 0.1 mm 2 mps 748 mmHg 76%
    14:00 +10°C° 0.1 mm 3 mps 748 mmHg 76%
    15:00 +10°C° 0.1 mm 3 mps 748 mmHg 77%
    16:00 +8°C° 0.1 mm 4 mps 748 mmHg 76%
    17:00 +7°C° 0.1 mm 5 mps 748 mmHg 75%
    18:00 +5°C° 0.1 mm 6 mps 748 mmHg 75%
    19:00 +6°C° 0 mm 5 mps 748 mmHg 74%
    20:00 +6°C° 0 mm 5 mps 748 mmHg 73%
    21:00 +6°C° 0 mm 5 mps 747 mmHg 72%
    22:00 +6°C° 0 mm 5 mps 747 mmHg 72%
    23:00 +6°C° 0 mm 4 mps 746 mmHg 71%

    Day after tomorrow, 17 November, Sunday

    Time Temperature Precipitation Wind Pressure Humidity
    00:00 +6°C° 0 mm 4 mps 745 mmHg 71%
    01:00 +6°C° 0 mm 4 mps 745 mmHg 71%
    02:00 +7°C° 0 mm 3 mps 744 mmHg 71%
    03:00 +7°C° 0 mm 3 mps 743 mmHg 71%
    04:00 +7°C° 0 mm 3 mps 742 mmHg 71%
    05:00 +7°C° 0 mm 3 mps 742 mmHg 72%
    06:00 +8°C° 0 mm 3 mps 741 mmHg 72%
    07:00 +8°C° 0 mm 2 mps 741 mmHg 73%
    08:00 +9°C° 0 mm 2 mps 741 mmHg 73%
    09:00 +11°C° 0 mm 1 mps 741 mmHg 74%
    10:00 +10°C° 0 mm 2 mps 741 mmHg 73%
    11:00 +12°C° 0 mm 2 mps 741 mmHg 72%
    12:00 +11°C° 0 mm 3 mps 741 mmHg 71%
    13:00 +11°C° 0 mm 3 mps 741 mmHg 74%
    14:00 +10°C° 0 mm 3 mps 742 mmHg 76%
    15:00 +10°C° 0 mm 4 mps 742 mmHg 79%
    16:00 +8°C° 0 mm 4 mps 743 mmHg 80%
    17:00 +8°C° 0 mm 4 mps 743 mmHg 82%
    18:00 +7°C° 0 mm 4 mps 743 mmHg 84%
    19:00 +7°C° 0.1 mm 4 mps 744 mmHg 84%
    20:00 +6°C° 0.1 mm 4 mps 744 mmHg 84%
    21:00 +7°C° 0.1 mm 3 mps 745 mmHg 84%
    22:00 +5°C° 0.1 mm 3 mps 745 mmHg 82%
    23:00 +5°C° 0.1 mm 3 mps 745 mmHg 80%

    18 November, Monday

    Time Temperature Precipitation Wind Pressure Humidity
    00:00 +6°C° 0.1 mm 2 mps 745 mmHg 78%
    01:00 +4°C° 0 mm 3 mps 745 mmHg 76%
    02:00 +4°C° 0 mm 3 mps 745 mmHg 75%
    03:00 +4°C° 0 mm 3 mps 745 mmHg 73%
    04:00 +5°C° 0 mm 2 mps 746 mmHg 73%
    05:00 +4°C° 0 mm 2 mps 746 mmHg 73%
    06:00 +4°C° 0 mm 2 mps 747 mmHg 73%
    07:00 +6°C° 0 mm 2 mps 747 mmHg 72%
    08:00 +7°C° 0 mm 2 mps 747 mmHg 70%
    09:00 +9°C° 0 mm 2 mps 748 mmHg 69%
    10:00 +9°C° 0 mm 3 mps 748 mmHg 71%
    11:00 +10°C° 0 mm 3 mps 748 mmHg 72%
    12:00 +10°C° 0 mm 3 mps 748 mmHg 73%
    13:00 +10°C° 0.1 mm 3 mps 748 mmHg 76%
    14:00 +10°C° 0.1 mm 3 mps 748 mmHg 78%
    15:00 +9°C° 0.1 mm 3 mps 748 mmHg 81%
    16:00 +8°C° 0.1 mm 3 mps 748 mmHg 80%
    17:00 +6°C° 0.1 mm 4 mps 749 mmHg 79%
    18:00 +5°C° 0.1 mm 4 mps 749 mmHg 77%
    19:00 +5°C° 0 mm 4 mps 749 mmHg 76%
    20:00 +5°C° 0 mm 4 mps 749 mmHg 74%
    21:00 +5°C° 0 mm 4 mps 749 mmHg 72%
    22:00 +5°C° 0 mm 4 mps 749 mmHg 71%
    23:00 +5°C° 0 mm 3 mps 749 mmHg 71%

    19 November, Tuesday

    Time Temperature Precipitation Wind Pressure Humidity
    00:00 +4°C° 0 mm 3 mps 749 mmHg 71%
    01:00 +4°C° 0 mm 3 mps 749 mmHg 70%
    02:00 +4°C° 0 mm 3 mps 749 mmHg 70%
    03:00 +4°C° 0 mm 3 mps 749 mmHg 70%
    04:00 +4°C° 0 mm 3 mps 750 mmHg 69%
    05:00 +4°C° 0 mm 3 mps 750 mmHg 67%
    06:00 +5°C° 0 mm 2 mps 750 mmHg 66%
    07:00 +6°C° 0 mm 2 mps 750 mmHg 65%
    08:00 +7°C° 0 mm 2 mps 750 mmHg 64%
    09:00 +10°C° 0 mm 1 mps 750 mmHg 63%
    10:00 +10°C° 0 mm 1 mps 750 mmHg 62%
    11:00 +10°C° 0 mm 2 mps 750 mmHg 61%
    12:00 +12°C° 0 mm 2 mps 750 mmHg 60%
    13:00 +10°C° 0 mm 2 mps 750 mmHg 63%
    14:00 +10°C° 0 mm 2 mps 750 mmHg 67%
    15:00 +9°C° 0 mm 2 mps 750 mmHg 70%
    16:00 +8°C° 0 mm 2 mps 750 mmHg 70%
    17:00 +7°C° 0 mm 2 mps 751 mmHg 70%
    18:00 +6°C° 0 mm 2 mps 751 mmHg 69%
    19:00 +6°C° 0 mm 2 mps 751 mmHg 68%
    20:00 +6°C° 0 mm 2 mps 752 mmHg 67%
    21:00 +5°C° 0 mm 2 mps 752 mmHg 65%
    22:00 +5°C° 0 mm 2 mps 752 mmHg 64%
    23:00 +5°C° 0 mm 2 mps 752 mmHg 64%

    20 November, Wednesday

    Time Temperature Precipitation Wind Pressure Humidity
    00:00 +5°C° 0 mm 2 mps 752 mmHg 63%
    01:00 +5°C° 0 mm 2 mps 752 mmHg 63%
    02:00 +5°C° 0 mm 2 mps 752 mmHg 64%
    03:00 +5°C° 0 mm 2 mps 752 mmHg 64%
    04:00 +5°C° 0 mm 2 mps 752 mmHg 64%
    05:00 +5°C° 0 mm 2 mps 752 mmHg 64%
    06:00 +4°C° 0 mm 3 mps 752 mmHg 65%
    07:00 +6°C° 0 mm 2 mps 752 mmHg 63%
    08:00 +7°C° 0 mm 2 mps 752 mmHg 61%
    09:00 +9°C° 0 mm 2 mps 753 mmHg 59%
    10:00 +10°C° 0 mm 2 mps 752 mmHg 61%
    11:00 +10°C° 0 mm 2 mps 752 mmHg 62%
    12:00 +12°C° 0 mm 2 mps 752 mmHg 64%
    13:00 +11°C° 0 mm 3 mps 752 mmHg 68%
    14:00 +10°C° 0 mm 3 mps 751 mmHg 72%
    15:00 +10°C° 0 mm 3 mps 751 mmHg 76%
    16:00 +9°C° 0.1 mm 3 mps 751 mmHg 77%
    17:00 +7°C° 0.1 mm 4 mps 751 mmHg 77%
    18:00 +7°C° 0.1 mm 4 mps 751 mmHg 77%
    19:00 +7°C° 0.4 mm 4 mps 751 mmHg 78%
    20:00 +7°C° 0.4 mm 4 mps 751 mmHg 79%
    21:00 +7°C° 0.4 mm 5 mps 751 mmHg 80%
    22:00 +7°C° 1.9 mm 5 mps 750 mmHg 84%
    23:00 +7°C° 1.9 mm 6 mps 750 mmHg 87%
    Show more